126  
ASUS44 KMOB 201013  
RWRMOB  
REGIONAL WEATHER ROUNDUP  
NATIONAL WEATHER SERVICE MOBILE AL  
500 AM CDT WED SEP 20 2017  
 
NOTE: "FAIR" INDICATES FEW OR NO CLOUDS BELOW 12,000 FEET WITH NO  
SIGNIFICANT WEATHER AND/OR S TO VISIBILITY
.  
 
* THESE STATIONS ARE PART OF THE UNIVERSITY OF SOUTH ALABAMA  
MESONET AND ARE NOT UNDER NWS OR FAA QUALITY CONTROL.
 
 
ALZ061>064-201100-  
COASTAL ALABAMA  
 
CITY SKY/WX TMP DP RH WIND PRES REMARKS
 
MOBILE REG APT CLEAR 75 73 93 SW5 29.98S  
BROOKLEY FIELD PTCLDY 77 76 96 S3 29.98S  
USA CAMPUS* NOT AVBL  
DOG RIVER* NOT AVBL  
 
 
CITY SKY/WX TMP DP RH WIND PRES REMARKS
 
GULF SHORES CLOUDY 73 73 100 CALM 29.97S  
 

 
 
ALZ051>060-201100-  
INTERIOR SOUTHWEST AND SOUTH CENTRAL ALABAMA  
 
CITY SKY/WX TMP DP RH WIND PRES REMARKS
 
GREENVILLE CLEAR 69 65 86 CALM 29.98R  
EVERGREEN CLEAR 70 69 97 CALM 29.98R FOG  
ATMORE* N/A N/A N/A N/A CALM N/A  
ANDALUSIA/OPP CLEAR 73 69 87 CALM 29.97R  
ANDALUSIA* N/A 72 70 94 W2 29.98R  
FLORALA APT NOT AVBL  
FLORALA* N/A 72 70 94 CALM 30.65S  
 

 
 
FLZ001>006-201100-  
WESTERN FLORIDA PANHANDLE  
 
CITY SKY/WX TMP DP RH WIND PRES REMARKS
 
PENSACOLA CLEAR 80 74 81 W3 29.97R  
NAS PENSACOLA CLEAR 73 71 93 CALM 29.96R  
MILTON PTCLDY 71 71 100 CALM 29.97S FOG  
WHTNG S FIELD CLEAR 75 72 90 CALM 29.97S  
 
 
CITY SKY/WX TMP DP RH WIND PRES REMARKS
 
JAY* N/A 72 72 100 CALM 29.98R  
DUKE FIELD CLEAR 73 72 97 W3 29.96S  
CRESTVIEW PTCLDY 73 71 93 CALM 29.98R  
VALPARAISO PTCLDY 75 72 89 CALM 29.96S  
DESTIN CLEAR 80 73 79 CALM 29.96S  
 

 
 
MSZ076-079-201100-  
INTERIOR SOUTHEAST MISSISSIPPI  
 
CITY SKY/WX TMP DP RH WIND PRES REMARKS
 
LEAKESVILLE* N/A 72 72 100 CALM 29.98S  
AGRICOLA* N/A 72 72 100 CALM 29.97R  
 

 
 
MARINE OBSERVATIONS  
 
STATION/POSITION TIME TEMP WIND PRES WAVE
 
AIR SEA DIR/SP/G HT/PER  
(UTC) (F) (DEG/KT/KT) (MB) (FT/S)  
PASCAGOULA 0942 81 10/ 3/ 4 1014.5R  
PETIT BOIS ISLND 0942 82 220/ 9/ 10 1015.4R  
GRAND BAY 0830 78 50/ 6 1015.0S  
KATRINA CUT 0930 82 240/ 10 1014.9R  
CEDAR POINT 0930 79 340/ 5 1015.2R  
E DAUPHIN ISLAND 1000 80 10/ 7/ 8 1014.7R  
MIDDLE BAY LIGHT 0930 78 170/ 18 1015.6R  
USCG MOBILE BAY 0942 77 82 240/ 3/ 5 1014.7R  
STATE DOCKS 0942 78 81 1014.6R  
MEAHER PARK 0930 78 100/ 2 1014.6F  
WEEKS BAY 0845 76 1014.0F  
FORT MORGAN 0942 80 340/ 10/ 11 N/A  
12 S ORANGE BCH 0950 82 83 230/ 8/ 10 1014.4R  
PENSACOLA BAY 0942 79 83 1014.9R  
64 S DAUPHIN ISL 1000 82 200/ 8/ 10 1015.1  
67 S FORT MORGAN 0930 81 210/ 8 1014.9F  
 

 
 
SELECTED LOCATIONS ACROSS THE REGION  
 
CITY SKY/WX TMP DP RH WIND PRES REMARKS
 
NEW ORLEANS PTCLDY 76 74 93 CALM 29.96S  
GULFPORT CLEAR 76 75 97 W3 29.96S  
PASCAGOULA AP PTCLDY 73 71 93 CALM 29.97R  
PASCAGOULA* N/A N/A N/A N/A CALM N/A  
HATTIESBURG CLEAR 72 72 100 CALM 29.97S  
LAUREL CLEAR 71 71 100 CALM 29.98R FOG  
MERIDIAN CLEAR 71 70 96 S3 29.97F  
JACKSON PTCLDY 73 72 96 CALM 29.96S  
MONTGOMERY CLEAR 71 66 84 CALM 29.99R  
TROY CLOUDY 68 68 100 NE5 30.00R FOG  
ASHFORD* N/A 72 70 94 W2 29.98R  
DOTHAN FOG 71 71 100 CALM 30.01S VSB 1/2  
PANAMA CITY CLEAR 76 74 93 W5 29.95S  
 

 
 
 
 
CLICK HERE TO GO TO PREVIOUS BULLETINS.

The Nexlab AL Page
The Nexlab FL Page
The Nexlab MS Page Main Text Page